TimeEDT,TemperatureF,Dew PointF,Humidity,Sea Level PressureIn,VisibilityMPH,Wind Direction,Wind SpeedMPH,Gust SpeedMPH,PrecipitationIn,Events,Conditions,WindDirDegrees,DateUTC
12:02 AM,69.8,68.0,94,29.96,8.0,Variable,3.5,-,0.01,Rain-Thunderstorm,Light Thunderstorms and Rain,0,2013-07-12 04:02:00
12:06 AM,69.8,68.0,94,29.96,10.0,ENE,5.8,-,0.01,Rain-Thunderstorm,Light Thunderstorms and Rain,70,2013-07-12 04:06:00
12:22 AM,69.8,66.2,88,29.96,10.0,SE,4.6,-,0.01,Thunderstorm,Thunderstorm,130,2013-07-12 04:22:00
12:36 AM,68.0,66.2,94,29.96,10.0,SE,4.6,-,0.01,,Scattered Clouds,130,2013-07-12 04:36:00
12:52 AM,68.0,66.2,94,29.97,10.0,SSE,5.8,-,0.01,,Mostly Cloudy,160,2013-07-12 04:52:00
12:54 AM,68.0,66.0,93,29.93,10.0,SSE,6.9,-,0.01,,Mostly Cloudy,160,2013-07-12 04:54:00
1:38 AM,69.8,66.2,88,29.97,10.0,WNW,3.5,-,N/A,,Overcast,300,2013-07-12 05:38:00
1:54 AM,69.1,66.9,93,29.93,10.0,West,3.5,-,N/A,,Overcast,270,2013-07-12 05:54:00
2:54 AM,69.1,66.9,93,29.92,10.0,NNW,4.6,-,N/A,,Overcast,340,2013-07-12 06:54:00
3:18 AM,69.8,66.2,88,29.95,10.0,North,3.5,-,N/A,,Mostly Cloudy,10,2013-07-12 07:18:00
3:54 AM,70.0,66.9,90,29.92,10.0,NE,4.6,-,N/A,,Overcast,40,2013-07-12 07:54:00
4:39 AM,69.8,66.2,88,29.96,10.0,NE,9.2,-,N/A,,Overcast,40,2013-07-12 08:39:00
4:54 AM,69.1,64.9,87,29.93,10.0,NE,5.8,-,N/A,,Overcast,50,2013-07-12 08:54:00
5:01 AM,69.8,66.2,88,29.96,10.0,ENE,3.5,-,N/A,,Overcast,60,2013-07-12 09:01:00
5:17 AM,69.8,64.4,83,29.97,10.0,NNE,10.4,-,N/A,,Overcast,30,2013-07-12 09:17:00
5:54 AM,68.0,64.0,87,29.96,10.0,NNE,8.1,-,N/A,,Overcast,30,2013-07-12 09:54:00
6:27 AM,68.0,64.4,88,30.00,10.0,NNE,10.4,-,N/A,,Overcast,20,2013-07-12 10:27:00
6:42 AM,68.0,62.6,83,29.99,10.0,NE,9.2,-,N/A,,Overcast,50,2013-07-12 10:42:00
6:54 AM,68.0,63.0,84,29.96,10.0,NNE,8.1,-,N/A,,Overcast,30,2013-07-12 10:54:00
7:26 AM,69.8,62.6,78,30.01,10.0,ENE,3.5,-,N/A,,Overcast,60,2013-07-12 11:26:00
7:54 AM,69.1,64.0,84,29.98,10.0,NNE,5.8,-,N/A,,Overcast,20,2013-07-12 11:54:00
8:54 AM,69.1,64.0,84,29.99,10.0,ENE,3.5,-,N/A,,Overcast,60,2013-07-12 12:54:00
9:54 AM,70.0,64.0,81,30.00,10.0,NNE,4.6,-,N/A,,Overcast,30,2013-07-12 13:54:00
10:54 AM,70.0,63.0,78,30.01,10.0,NNE,6.9,-,N/A,,Overcast,20,2013-07-12 14:54:00
11:54 AM,72.0,63.0,73,30.02,10.0,NNE,11.5,-,N/A,,Overcast,20,2013-07-12 15:54:00
12:54 PM,73.9,64.0,71,30.02,10.0,NE,11.5,-,N/A,,Overcast,40,2013-07-12 16:54:00
1:54 PM,73.0,63.0,71,30.01,10.0,NNE,10.4,-,N/A,,Overcast,20,2013-07-12 17:54:00
2:54 PM,73.9,64.0,71,30.02,10.0,NE,9.2,-,N/A,,Mostly Cloudy,40,2013-07-12 18:54:00
3:54 PM,77.0,63.0,62,30.00,10.0,ENE,9.2,-,N/A,,Scattered Clouds,60,2013-07-12 19:54:00
4:54 PM,75.0,62.1,64,30.01,10.0,NNE,11.5,-,N/A,,Mostly Cloudy,30,2013-07-12 20:54:00
5:54 PM,73.9,63.0,68,30.00,10.0,NE,12.7,-,N/A,,Mostly Cloudy,50,2013-07-12 21:54:00
6:54 PM,73.9,62.1,66,30.01,10.0,NE,12.7,-,N/A,,Mostly Cloudy,40,2013-07-12 22:54:00
7:54 PM,72.0,63.0,73,30.03,10.0,ENE,8.1,-,N/A,,Mostly Cloudy,70,2013-07-12 23:54:00
8:54 PM,71.1,63.0,75,30.04,10.0,NE,8.1,-,N/A,,Overcast,40,2013-07-13 00:54:00
9:54 PM,70.0,62.1,76,30.07,10.0,NNE,8.1,-,N/A,,Overcast,30,2013-07-13 01:54:00
10:54 PM,69.1,62.1,78,30.08,10.0,NE,8.1,-,N/A,,Overcast,40,2013-07-13 02:54:00
11:54 PM,69.1,62.1,78,30.09,10.0,NNE,6.9,-,N/A,,Overcast,30,2013-07-13 03:54:00